Terminal Aerodrome Forecast
Issued by NWS Raleigh/Durham, NC

Home | Current Version | Previous Version | Text Only | Print | Product List | Glossary On
Versions: 1 2 3 4 5 6 7 8 9 10 11 12 13 14 15 16 17 18 19 20 21
000
FTUS42 KRAH 242340
TAFGSO
TAF
KGSO 242340Z 2500/2524 VRB06KT P6SM BKN250
     FM250900 16006KT P6SM VCSH BKN012 OVC040
     FM251200 16011KT P6SM OVC008
     FM251600 22013G23KT P6SM SCT012 BKN025 PROB30 2519/2523 2SM
      TSRA BKN025CB=

USA.gov is the U.S. government's official web portal to all federal, state and local government web resources and services.